Weather History for Huntsville Madison, AL

Change the Weather History Date:

Friday, September 13, 2013

  Actual Average (KHSV) Record (KHSV)
Temperature  
Mean Temperature 68 °F 75 °F  
Max Temperature 78 °F 86 °F 101 °F (1927)
Min Temperature 57 °F 64 °F 42 °F (1940)
Degree Days  
Heating Degree Days 0 0  
Month to date heating degree days 0  
Since 1 July heating degree days 0  
Cooling Degree Days 2 10  
Month to date cooling degree days 153  
Year to date cooling degree days 1748  
Growing Degree Days 18 (Base 50)    
Moisture  
Dew Point 55 °F    
Average Humidity 65    
Maximum Humidity 94    
Minimum Humidity 30    
Precipitation  
Precipitation 0.00 in 0.13 in 5.95 in (1929)
Month to date precipitation 1.56  
Year to date precipitation 37.88  
Snow  
Snow 0.00 in - - ()
Month to date snowfall  
Since 1 July snowfall  
Since 1 September snowfall  
Snow Depth -    
Sea Level Pressure  
Sea Level Pressure 29.96 in    
Wind  
Wind Speed 4 mph (North)    
Max Wind Speed 15 mph    
Max Gust Speed 18 mph    
Visibility 7 miles    
Events Fog    
T = Trace of Precipitation, MM = Missing Value Source: NWS Daily Summary

Daily Weather History Graph

Daily Weather History Graph

Search for Another Location

Airport:

Trip Planner

Search our weather history database for the weather conditions in past years. The results will help you decide how hot, cold, wet, or windy it might be!

Date:

Astronomy

Sep. 13, 2013 Rise Set
Actual Time 6:27 AM CDT 6:55 PM CDT
Civil Twilight 6:02 AM CDT 7:20 PM CDT
Nautical Twilight 5:32 AM CDT 7:50 PM CDT
Astronomical Twilight 5:02 AM CDT 8:20 PM CDT
Moon 2:35 PM CDT (9/13) 12:07 AM CDT (9/13)
Length of Visible Light 13h 18m
Length of Day
12h 27m
First Quarter, 61% of the Moon is Illuminated
Sep 13
First Quarter
Sep 19
Full
Sep 26
Last Quarter
Oct 4
New
Oct 11
First Quarter

Hourly Weather History & Observations

Time (CDT) Temp. Dew Point Humidity Pressure Visibility Wind Dir Wind Speed Gust Speed Precip Events Conditions
12:15 AM 69.8 °F 66.2 °F 88% 29.97 in 4.0 mi Calm Calm - N/A   Clear
12:35 AM 68.0 °F 66.2 °F 94% 29.97 in 3.0 mi Calm Calm - N/A   Clear
12:55 AM 68.0 °F 64.4 °F 88% 29.96 in 1.0 mi Calm Calm - N/A   Mist
1:15 AM 68.0 °F 64.4 °F 88% 29.96 in 1.0 mi Calm Calm - N/A   Mostly Cloudy
1:35 AM 68.0 °F 64.4 °F 88% 29.96 in 1.2 mi Calm Calm - N/A   Mostly Cloudy
1:55 AM 68.0 °F 64.4 °F 88% 29.96 in 1.2 mi Calm Calm - N/A   Mostly Cloudy
2:15 AM 68.0 °F 64.4 °F 88% 29.95 in 0.8 mi Calm Calm - N/A   Overcast
2:35 AM 68.0 °F 64.4 °F 88% 29.94 in 0.2 mi Calm Calm - N/A Fog Fog
2:55 AM 68.0 °F 64.4 °F 88% 29.94 in 0.5 mi Calm Calm - N/A Fog Fog
3:15 AM 66.2 °F 64.4 °F 94% 29.94 in 0.2 mi Calm Calm - N/A Fog Fog
3:35 AM 68.0 °F 64.4 °F 88% 29.94 in 0.5 mi Calm Calm - N/A Fog Fog
3:55 AM 68.0 °F 64.4 °F 88% 29.94 in 0.2 mi Calm Calm - N/A Fog Fog
4:15 AM 68.0 °F 64.4 °F 88% 29.94 in 0.8 mi Calm Calm - N/A   Overcast
4:35 AM 68.0 °F 64.4 °F 88% 29.94 in 0.8 mi Calm Calm - N/A   Overcast
4:55 AM 68.0 °F 64.4 °F 88% 29.94 in 0.5 mi Calm Calm - N/A Fog Fog
5:15 AM 68.0 °F 64.4 °F 88% 29.95 in 0.2 mi Calm Calm - N/A Fog Fog
5:35 AM 68.0 °F 64.4 °F 88% 29.96 in 0.2 mi Calm Calm - N/A Fog Fog
5:55 AM 68.0 °F 64.4 °F 88% 29.96 in 0.5 mi Calm Calm - N/A Fog Fog
6:15 AM 68.0 °F 64.4 °F 88% 29.96 in 0.5 mi Calm Calm - N/A Fog Fog
6:35 AM 66.2 °F 64.4 °F 94% 29.97 in 0.2 mi Calm Calm - N/A Fog Fog
6:55 AM 68.0 °F 64.4 °F 88% 29.97 in 3.0 mi North 3.5 mph - N/A   Overcast
7:15 AM 68.0 °F 64.4 °F 88% 29.97 in 3.0 mi North 4.6 mph - N/A   Overcast
7:35 AM 68.0 °F 64.4 °F 88% 29.97 in 3.0 mi North 3.5 mph - N/A   Mist
7:55 AM 68.0 °F 64.4 °F 88% 29.97 in 4.0 mi North 5.8 mph - N/A   Mostly Cloudy
8:15 AM 68.0 °F 64.4 °F 88% 29.97 in 5.0 mi North 5.8 mph - N/A   Overcast
8:35 AM 68.0 °F 64.4 °F 88% 29.98 in 5.0 mi NNE 5.8 mph - N/A   Overcast
8:55 AM 68.0 °F 66.2 °F 94% 29.98 in 7.0 mi NNE 6.9 mph - N/A   Overcast
9:15 AM 69.8 °F 68.0 °F 94% 29.98 in 7.0 mi North 5.8 mph - N/A   Mostly Cloudy
9:35 AM 71.6 °F 64.4 °F 78% 29.98 in 10.0 mi NNE 6.9 mph - N/A   Scattered Clouds
9:55 AM 73.4 °F 62.6 °F 69% 29.98 in 10.0 mi NNE 5.8 mph - N/A   Clear
10:15 AM 73.4 °F 59.0 °F 61% 29.98 in 10.0 mi NNE 5.8 mph - N/A   Clear
10:35 AM 75.2 °F 59.0 °F 57% 29.99 in 10.0 mi North 10.4 mph - N/A   Scattered Clouds
10:55 AM 75.2 °F 55.4 °F 50% 29.99 in 10.0 mi NNE 10.4 mph - N/A   Clear
11:15 AM 77.0 °F 53.6 °F 44% 29.99 in 10.0 mi North 11.5 mph - N/A   Clear
11:35 AM 77.0 °F 51.8 °F 41% 29.99 in 10.0 mi NNE 9.2 mph - N/A   Clear
11:55 AM 77.0 °F 51.8 °F 41% 29.98 in 10.0 mi North 6.9 mph - N/A   Clear
12:15 PM 77.0 °F 50.0 °F 39% 29.97 in 10.0 mi NNW 10.4 mph - N/A   Clear
12:35 PM 77.0 °F 50.0 °F 39% 29.97 in 10.0 mi North 15.0 mph - N/A   Clear
12:55 PM 78.8 °F 46.4 °F 32% 29.96 in 10.0 mi North 12.7 mph - N/A   Clear
1:15 PM 78.8 °F 44.6 °F 30% 29.96 in 10.0 mi North 15.0 mph - N/A   Clear
1:35 PM 78.8 °F 44.6 °F 30% 29.96 in 10.0 mi North 10.4 mph - N/A   Clear
1:55 PM 78.8 °F 44.6 °F 30% 29.95 in 10.0 mi North 13.8 mph - N/A   Clear
2:15 PM 78.8 °F 46.4 °F 32% 29.95 in 10.0 mi North 12.7 mph 16.1 mph N/A   Clear
2:35 PM 77.0 °F 48.2 °F 36% 29.94 in 10.0 mi NNW 12.7 mph - N/A   Clear
2:55 PM 78.8 °F 46.4 °F 32% 29.93 in 10.0 mi NNW 13.8 mph - N/A   Clear
3:15 PM 77.0 °F 44.6 °F 32% 29.93 in 10.0 mi North 12.7 mph 18.4 mph N/A   Clear
3:35 PM 77.0 °F 48.2 °F 36% 29.93 in 10.0 mi North 8.1 mph - N/A   Clear
3:55 PM 77.0 °F 46.4 °F 34% 29.93 in 10.0 mi North 13.8 mph - N/A   Clear
4:15 PM 77.0 °F 46.4 °F 34% 29.93 in 10.0 mi North 10.4 mph - N/A   Clear
4:35 PM 77.0 °F 46.4 °F 34% 29.93 in 10.0 mi North 9.2 mph - N/A   Clear
4:55 PM 77.0 °F 44.6 °F 32% 29.93 in 10.0 mi North 13.8 mph 18.4 mph N/A   Clear
5:15 PM 75.2 °F 44.6 °F 34% 29.93 in 10.0 mi North 10.4 mph - N/A   Clear
5:35 PM 73.4 °F 44.6 °F 36% 29.94 in 10.0 mi North 6.9 mph - N/A   Clear
5:55 PM 73.4 °F 48.2 °F 41% 29.94 in 10.0 mi North 6.9 mph - N/A   Clear
6:15 PM 71.6 °F 48.2 °F 43% 29.94 in 10.0 mi North 8.1 mph - N/A   Clear
6:35 PM 71.6 °F 46.4 °F 41% 29.94 in 10.0 mi North 6.9 mph - N/A   Clear
6:55 PM 69.8 °F 50.0 °F 49% 29.94 in 10.0 mi North 5.8 mph - N/A   Clear
7:15 PM 68.0 °F 46.4 °F 46% 29.95 in 10.0 mi North 5.8 mph - N/A   Clear
7:35 PM 66.2 °F 50.0 °F 56% 29.96 in 10.0 mi North 5.8 mph - N/A   Clear
7:55 PM 64.4 °F 48.2 °F 56% 29.97 in 10.0 mi North 5.8 mph - N/A   Clear
8:15 PM 64.4 °F 46.4 °F 52% 29.98 in 10.0 mi North 5.8 mph - N/A   Clear
8:35 PM 64.4 °F 48.2 °F 56% 29.99 in 10.0 mi North 4.6 mph - N/A   Clear
8:55 PM 62.6 °F 48.2 °F 59% 29.99 in 10.0 mi North 4.6 mph - N/A   Clear
9:15 PM 62.6 °F 50.0 °F 63% 30.00 in 10.0 mi Calm Calm - N/A   Clear
9:35 PM 60.8 °F 50.0 °F 68% 30.00 in 10.0 mi Calm Calm - N/A   Clear
9:55 PM 59.0 °F 51.8 °F 77% 30.00 in 10.0 mi Calm Calm - N/A   Clear
10:15 PM 59.0 °F 51.8 °F 77% 30.00 in 10.0 mi North 3.5 mph - N/A   Clear
10:35 PM 59.0 °F 51.8 °F 77% 30.01 in 10.0 mi Calm Calm - N/A   Clear
10:55 PM 59.0 °F 50.0 °F 72% 30.01 in 10.0 mi Calm Calm - N/A   Clear
11:15 PM 57.2 °F 51.8 °F 82% 30.01 in 10.0 mi Calm Calm - N/A   Clear
11:35 PM 57.2 °F 50.0 °F 77% 30.00 in 10.0 mi North 4.6 mph - N/A   Clear
11:55 PM 57.2 °F 50.0 °F 77% 30.00 in 10.0 mi North 5.8 mph - N/A   Clear